Location: Mana�l
(15.0115°N, 12.5022°W)
Time: 11:51:41
(UTC+00:00)

GEOS 3 Rocket - Pass Details

Date: 07 June 2020
Orbit: 772 x 847 km, 115.0° (Epoch: 05 July)

Event Time Altitude Azimuth Distance (km) Brightness Sun altitude
Rises 05:00:59 0° 170° (S) 3,246 6.5 -17.7°
Reaches altitude 10° 05:03:26 10° 180° (S) 2,327 5.7 -17.2°
Maximum altitude 05:07:56 33° 243° (WSW) 1,291 4.1 -16.2°
Drops below altitude 10° 05:12:31 10° 307° (NW) 2,366 5.8 -15.3°
Sets 05:15:02 0° 316° (NW) 3,309 6.6 -14.7°
